This is the latest recevied weather packets stored in our database for station/object CQ0XBF-11. If no packets are shown the sender has not sent any weather packets the latest 10 day(s).
| Time | Temp. | Humidity | Pressure | Rain* | Wind** | Luminosity | Snow |
|---|---|---|---|---|---|---|---|
| 1778081439 | 23.33° C | 33% | - | 0 mm | - | - | - |
| 1778081317 | 23.89° C | 33% | - | 0 mm | - | - | - |
| 1778081196 | 23.89° C | 36% | - | 0 mm | - | - | - |
| 1778081074 | 23.33° C | 35% | - | 0 mm | - | - | - |
| 1778080953 | 23.89° C | 33% | - | 0 mm | - | - | - |
| 1778080831 | 23.89° C | 32% | - | 0 mm | - | - | - |
| 1778080710 | 23.89° C | 34% | - | 0 mm | - | - | - |
| 1778080588 | 23.89° C | 34% | - | 0 mm | - | - | - |
| 1778080467 | 23.89° C | 33% | - | 0 mm | - | - | - |
| 1778080345 | 23.89° C | 33% | - | 0 mm | - | - | - |
| 1778080256 | 24.44° C | 33% | - | 0 mm | - | - | - |
| 1778080224 | 24.44° C | 33% | - | 0 mm | - | - | - |
| 1778080102 | 23.89° C | 33% | - | 0 mm | - | - | - |
| 1778079981 | 24.44° C | 35% | - | 0 mm | - | - | - |
| 1778079859 | 23.89° C | 33% | - | 0 mm | - | - | - |
| 1778079779 | 24.44° C | 33% | - | 0 mm | - | - | - |
| 1778079738 | 24.44° C | 33% | - | 0 mm | - | - | - |
| 1778079616 | 24.44° C | 30% | - | 0 mm | - | - | - |
| 1778079495 | 25° C | 31% | - | 0 mm | - | - | - |
| 1778079373 | 25° C | 30% | - | 0 mm | - | - | - |
| 1778079252 | 24.44° C | 30% | - | 0 mm | - | - | - |
| 1778079050 | 23.33° C | 33% | - | 0 mm | - | - | - |
| 1778079009 | 23.33° C | 33% | - | 0 mm | - | - | - |
| 1778078887 | 23.33° C | 33% | - | 0 mm | - | - | - |
| 1778078766 | 23.33° C | 35% | - | 0 mm | - | - | - |
* Rain since midnight (hover to see other rain measurements)
** Current wind speed in m/s (hover to see current wind gust speed)